Location: Cambroso
(45.2833°N, 12.0850°E)
Time: 16:47:15
(UTC+00:00)

Cosmos 2344 - Pass Details

Date: 21 January 2021
Orbit: 1243 x 2999 km, 63.3° (Epoch: 25 February)

Event Time Altitude Azimuth Distance (km) Brightness Sun altitude
Rises 18:33:01 0° 320° (NW) 4,547 7.0 -26.0°
Reaches altitude 10° 18:35:38 10° 323° (NW) 3,703 6.4 -26.5°
Maximum altitude 18:44:58 77° 50° (NE) 1,933 4.2 -28.1°
Enters shadow 18:51:02 36° 130° (SE) 3,037 5.1 -29.2°
